Terminal Aerodrome Forecast
Issued by NWS

Home | Current Version | Previous Version | Text Only | Print | Product List | Glossary On
Versions: 1 2 3 4 5 6 7 8 9 10 11 12 13 14 15 16 17
000
FTUS43 KPAH 071700
TAFCGI
TAF
KCGI 071720Z 0718/0818 22013G21KT P6SM SCT040 BKN250
     FM080000 20008KT P6SM BKN150
     FM081500 23012G20KT P6SM VCTS SCT025CB BKN040=

USA.gov is the U.S. government's official web portal to all federal, state and local government web resources and services.